User: anonymous   Login
Location: Milton Keynes
(52.0316°N, 0.7531°W)
Time: 14:27:24
(UTC+00:00)
Language:

GENESIS II - Orbit

View from above orbital plane
View from above orbital plane
View from above satellite
View from above satellite

Ground track
Ground track

The orbit data is extracted from the following two-line orbital elements,

1 31789U 07028A   19046.74526722 +.00000262 +00000-0 +23555-4 0  9994
2 31789 064.5036 136.7955 0040789 304.6054 055.1224 15.16811297641191
Epoch (UTC): 15 February 2019 17:53:11
Eccentricity: 0.0040789
inclination: 64.5036°
perigee height: 487 km
apogee height: 543 km
right ascension of ascending node: 136.7955°
argument of perigee: 304.6054°
revolutions per day: 15.16811297
mean anomaly at epoch: 55.1224°
orbit number at epoch: 64119

The dashed part of the orbit path shows where the satellite is in the earth's shadow,  

DLR